Terug naar catalogus

STARLINK-33821

ActiefCommunicatieVLEO
NORAD 63859·PAYLOAD·🇺🇸 United States

Gelanceerd May 7, 2025 vanaf Cape Canaveral Space Force Station

Loading…

Volgende Passages (komende 24 uur)

TLE

VersSource: CelesTrak SupGP

Epoch: Sep 15, 2026, 02:36 UTC

1 63859C 25093Z   26258.10881944  .00009053  00000+0  32786-3 0  2581
2 63859  43.0014  88.2920 0001699 269.5196 294.1718 15.27578773    12

Volg STARLINK-33821 in realtime met AllMySat

Download on the App Store